Regional Weather Roundup
Issued by NWS Cleveland, OH

Home | Current Version | Previous Version | Graphics & Text | Print | Product List | Glossary On
Versions: 1 2 3 4 5 6 7 8 9 10 11 12 13 14 15 16 17 18 19 20 21 22 23 24 25 26 27 28 29 30 31 32 33 34 35 36 37 38 39 40 41 42 43 44 45 46 47 48 49 50
000
ASUS41 KCLE 190712
RWRCLE
OHIO REGIONAL WEATHER ROUNDUP
NATIONAL WEATHER SERVICE WILMINGTON, OH
300 AM EDT TUE JUN 19 2018

NOTE: "FAIR" INDICATES FEW OR NO CLOUDS BELOW 12,000 FEET WITH NO
SIGNIFICANT WEATHER AND/OR OBSTRUCTIONS TO VISIBILITY.

OHZ001>008-015>018-024>027-034-035-043-044-190800-
   NORTHWEST OHIO

CITY           SKY/WX    TMP DP  RH WIND       PRES   REMARKS
DEFIANCE       MOCLDY    74  71  91 NW5       29.95F
FINDLAY        MOCLDY    78  69  73 W6        29.94F
TOLEDO EXPRESS CLOUDY    77  76  96 N5        29.94F
TOLEDO EXEC    MOCLDY    77  72  84 N8        29.94F
LIMA           CLOUDY    78  70  76 W8        29.97F
$$

OHZ009>014-019>023-028>033-038-089-190800-
   NORTHEAST OHIO

CITY           SKY/WX    TMP DP  RH WIND       PRES   REMARKS
CLE-HOPKINS    LGT RAIN  75  73  93 CALM      29.94F
CLE-LAKEFRONT  CLOUDY    72  70  93 N9        29.92R
CUY CO. ARPT   NOT AVBL
LORAIN-ELYRIA  LGT RAIN  72  66  81 NW7       29.94S
ASHTABULA      LGT RAIN  71  71 100 N3        29.93S
AKRON-CANTON   MOCLDY    76  71  85 NW5       29.96R
WOOSTER        MOCLDY    75  72  90 N6        29.96S
MANSFIELD      CLOUDY    76  73  91 VRB6      29.97R
YOUNGSTOWN     TSTM      73  73 100 W9G22     29.94R FOG
$$

OHZ042-051>053-060>062-070>072-077>081-190800-
  SOUTHWEST OHIO

CITY           SKY/WX    TMP DP  RH WIND       PRES   REMARKS
CINC-COVINGTON FAIR      78  71  79 SW6       30.01F
CINC-LUNKEN    FAIR      77  74  90 SW6       30.00S
HAMILTON       FAIR      78  74  87 W3        30.00S
DAYTON         FAIR      78  76  93 W10       30.00S
WRIGHT-PAT AFB FAIR      78  72  83 SW8       29.98F
DAYTON GENERAL FAIR      80  71  74 W7        29.99F
WILMINGTON     FAIR      78  74  87 W8        30.00S
$$

OHZ036-037-039>041-045>050-054>059-063>069-073>076-082>088-190800-
  CENTRAL AND SOUTHEAST OHIO

CITY           SKY/WX    TMP DP  RH WIND       PRES   REMARKS
COLUMBUS       CLOUDY    82  71  69 W10       29.96S
OSU AIRPORT    FAIR      80  72  76 W8        29.96F
BOLTON FIELD   FAIR      78  72  81 W8        29.98F
RICKENBACK AFB MOCLDY    75  72  90 SW6       29.97S
NEWARK         LGT RAIN  80  72  76 W8        29.95F
MARION         MOCLDY    80  71  74 N6        29.97S
LANCASTER      FAIR      77  71  82 W7        29.98S
ZANESVILLE     FAIR      78  70  76 W8        29.96S
NEW PHILLY     MOCLDY    80  71  74 NW6       29.94R
$$



USA.gov is the U.S. government's official web portal to all federal, state and local government web resources and services.